GFSFLT1_con_sbcape_009.txt.gz
CAPE
22 2 50 125 192 294 1120 1542 2409 2230 1248 1143 602 387 46 0 0 0 6 318 60 0 0 1 60 2 106 93 146 178 125 28 7
0 0 32 36 113 245 965 1539 2298 1670 1260 1135 747 458 49 18 28 18 133 28 0 0 141 0 26 27 44 136 243 273 71 43 66
15 1 74 130 149 501 1072 1740 1799 1455 1194 1032 879 514 351 349 326 186 92 46 0 13 0 79 51 136 155 155 76 143 209 11 0
26 66 94 333 546 755 1219 1669 1621 1312 1196 1062 782 573 476 471 605 322 177 89 5 23 97 303 256 229 154 108 160 212 232 80 85
0 45 44 283 308 573 1324 1509 1333 1202 1251 991 438 590 538 408 0 6 133 46 17 11 51 105 161 130 193 175 105 115 109 6 81
1 0 570 158 6 104 1378 1304 913 942 1115 930 351 329 635 173 54 21 30 68 29 33 45 38 3 106 105 88 102 104 128 169 126
123 55 1332 709 1156 1209 1202 1247 702 611 621 541 343 363 438 217 165 98 139 167 179 180 166 125 248 340 225 169 251 252 343 306 112
0 85 466 1384 1095 1662 1365 1213 671 437 260 342 370 333 225 180 172 193 278 299 409 346 182 335 268 322 316 261 453 508 66 139 271
0 1 0 470 1617 1265 1421 1331 676 430 161 113 86 170 170 351 356 323 357 313 393 289 224 334 511 267 193 286 414 260 14 23 48
0 0 34 31 152 1478 1401 1408 889 362 78 169 158 125 124 195 262 272 336 412 575 763 654 531 179 403 423 256 400 625 284 142 32
0 0 10 31 115 1707 1674 1274 621 308 238 64 10 82 260 274 380 467 505 586 627 651 529 304 414 511 299 465 457 366 139 13 12
0 197 303 335 302 1920 1692 1055 655 447 197 64 180 164 264 537 523 505 645 863 849 710 713 563 642 579 346 406 201 6 3 0 0
190 222 349 439 546 1602 1389 1035 558 416 241 485 502 449 580 787 745 783 914 978 1056 850 653 513 425 21 350 204 0 0 0 0 0
250 226 487 770 838 1934 1448 1025 674 366 288 504 537 557 874 1077 1098 1115 1090 1096 955 798 752 30 12 167 368 257 150 0 0 0 0
305 354 736 909 1862 2032 1624 833 534 285 411 605 841 924 1109 1382 1430 1368 1332 1302 1055 829 401 101 145 220 303 50 9 0 0 0 0
229 546 850 1174 1752 1096 491 428 480 53 0 0 179 1548 1570 1771 1805 1711 863 1083 802 364 134 157 108 174 178 6 0 0 0 0 0
852 1019 473 60 0 0 0 0 0 0 0 0 0 22 1363 1131 1534 1492 1057 230 185 177 208 159 91 51 1 3 0 0 0 0 0
778 707 511 327 26 13 63 0 0 0 0 0 0 0 9 697 1147 864 0 1 0 0 0 0 0 0 0 0 0 0 0 0 0
319 312 592 214 0 0 0 5 0 0 0 0 0 3 370 649 535 305 0 0 0 0 0 0 0 0 0 0 0 0 0 0 0
555 134 257 252 81 20 43 0 0 4 0 4 234 715 318 373 161 138 21 0 0 0 0 0 0 0 0 0 0 0 0 0 0

GFSFLT1_con_sbcape_015.txt.gz
CAPE
54 99 551 690 726 588 480 846 1057 1284 1350 1209 959 341 15 0 0 0 0 0 0 0 0 0 0 0 0 0 0 0 0 0 0
19 52 505 777 849 719 571 858 1088 1334 1386 1202 799 66 0 0 0 0 0 0 0 0 0 0 0 0 0 0 0 0 0 0 0
12 64 218 611 861 672 788 1067 1160 1316 1526 1286 695 0 0 0 0 0 0 0 0 0 0 0 0 0 0 0 0 0 0 0 0
4 50 117 206 501 441 578 1218 1287 1330 1604 1207 154 1 0 0 0 0 0 0 0 0 0 0 0 0 0 0 0 0 0 0 0
21 60 66 110 181 272 235 818 1237 1384 1483 1035 279 32 0 0 0 0 0 0 0 0 0 0 0 0 0 0 0 0 0 0 0
0 0 25 65 99 201 314 499 951 1429 1506 1058 281 25 0 0 0 0 0 0 0 0 0 0 0 0 0 0 0 0 0 0 0
0 0 0 13 95 179 274 354 835 1535 1512 1075 313 16 0 0 0 0 4 0 0 0 0 0 0 0 0 0 0 0 0 0 0
0 0 0 0 12 62 133 263 738 1532 1485 989 410 17 0 0 0 1 3 37 0 0 0 0 12 0 0 0 0 0 0 0 0
0 0 0 17 12 3 54 367 852 1372 1368 988 475 146 38 13 0 0 0 0 0 0 0 0 0 0 0 0 0 0 5 3 0
0 0 0 0 0 1 0 454 1002 1144 1195 954 489 199 65 6 67 80 12 0 0 0 0 1 32 5 7 14 0 0 0 1 0
0 0 0 43 108 267 182 19 793 926 869 748 512 24 83 43 3 34 47 25 10 31 9 30 52 21 20 4 0 0 10 26 5
0 0 0 0 0 120 410 791 663 611 473 531 364 49 72 153 102 2 39 31 52 54 110 122 110 34 13 7 0 0 3 0 0
0 0 0 0 0 34 520 603 709 463 299 398 480 162 0 7 18 35 45 58 89 89 128 123 36 13 4 6 7 28 5 0 0
0 0 6 43 450 627 779 657 426 201 202 299 58 2 0 0 2 10 13 21 54 87 123 49 0 10 0 1 0 0 3 0 0
0 17 213 705 726 676 552 359 286 60 27 0 0 3 4 0 15 107 7 0 0 0 4 9 0 4 4 0 0 0 0 0 1
254 508 535 145 414 235 20 37 39 5 1 0 0 0 0 0 0 0 0 0 0 0 0 17 0 0 0 0 0 0 0 0 0
378 139 29 0 33 0 0 0 0 0 0 0 0 0 0 0 0 0 0 0 0 3 15 2 0 0 0 0 0 0 0 0 0
394 105 11 5 2 0 0 0 0 0 0 0 0 0 0 0 0 0 0 0 1 0 0 0 0 0 0 0 0 0 0 0 0
416 270 1 0 0 0 0 0 0 0 0 0 0 0 0 0 0 0 0 0 0 0 0 0 0 0 0 0 0 0 0 0 0
172 101 11 1 0 0 0 0 0 0 0 0 0 0 0 0 0 0 1 0 0 0 0 0 0 0 0 0 0 0 0 0 0

GFSFLT1_con_sbcape_021.txt.gz
CAPE
302 301 415 471 853 899 960 1066 1469 1597 1751 2014 2307 2014 2565 2682 2655 2276 1651 1641 752 274 237 126 386 568 598 422 203 137 100 85 118
260 412 555 467 526 750 1056 1304 1476 1703 1927 2063 2220 1963 2549 2477 2677 2368 1696 1443 446 253 234 151 316 421 463 207 63 110 225 94 264
145 382 526 569 830 1040 1225 1244 1559 1714 1948 2126 2174 2001 2255 2147 2145 1905 1667 491 42 99 137 181 350 391 275 183 172 202 293 145 90
35 183 434 720 1101 1200 1271 1285 1236 1511 1747 2139 2280 2362 2491 2461 1804 1310 48 253 9 1 22 94 302 257 198 283 288 249 290 253 174
9 101 263 583 842 1064 1238 1517 1214 1317 1689 1794 2104 2248 2352 1932 967 35 422 61 92 30 27 13 59 193 269 317 327 267 332 299 102
102 198 315 587 815 1384 1640 1674 1868 1668 1697 1626 1695 2071 1690 1342 98 229 48 0 21 2 17 32 33 90 273 260 328 353 393 309 310
125 250 281 593 903 1407 1718 1977 2117 2094 1804 1655 1805 1905 1588 940 189 379 126 0 0 0 0 0 15 16 65 238 427 373 308 277 362
200 205 354 759 813 1493 1877 2102 2317 2146 1957 2216 2233 2152 1661 1129 340 411 239 138 6 0 0 1 16 5 36 131 240 223 274 319 522
257 374 457 640 827 997 1424 1752 1692 1821 1981 2094 2386 1996 1660 1002 460 540 383 184 66 0 0 0 64 9 27 177 182 26 0 217 724
358 597 678 594 855 1262 1336 1220 1379 1488 1787 2163 2238 1981 1570 667 656 629 432 171 134 77 45 21 46 55 114 303 360 52 14 9 619
332 431 646 551 462 684 1004 961 1063 1472 1802 2291 2177 1885 1271 843 665 603 474 311 165 210 211 18 118 196 352 365 584 136 36 22 450
105 174 293 383 362 472 587 918 1288 1726 2078 2206 2120 1769 1223 1002 788 670 451 284 228 361 333 190 182 275 430 516 850 6 0 0 76
35 163 306 499 568 709 873 797 1314 1743 2014 2076 2031 1828 1366 1040 822 665 396 317 254 336 309 327 297 283 361 323 639 29 1 1 1
119 138 228 466 810 1085 1227 1248 1146 1580 1878 2053 2023 1746 1315 947 720 544 470 576 566 554 476 422 461 503 709 276 320 35 18 0 0
701 853 945 1081 1162 1233 1246 1340 1584 1640 1755 1832 1613 1137 1114 931 760 553 526 656 662 700 686 703 871 572 91 388 465 26 0 1 0
616 677 764 893 1028 1155 1167 1253 1267 1215 464 800 1039 1350 1033 743 576 698 667 676 932 891 871 978 787 72 154 267 130 42 0 1 1
637 651 741 899 1183 1196 998 894 577 787 773 1092 1155 1065 1005 830 862 798 770 672 673 627 558 509 106 136 144 156 36 22 0 0 0
776 739 593 535 744 838 500 513 627 624 532 463 863 902 884 796 458 294 4 2 2 0 1 1 60 150 151 124 222 78 0 0 0
753 691 628 754 638 680 410 207 462 495 343 448 584 529 424 307 161 0 0 0 0 0 0 0 0 0 58 0 0 0 0 0 0
156 551 482 512 658 520 470 504 508 332 334 479 353 40 0 0 4 0 0 1 0 0 0 0 0 0 0 0 0 0 0 0 0

GFSFLT1_con_sbcape_024.txt.gz
CAPE
391 637 532 357 528 610 715 975 1577 1999 3267 4050 3559 3097 3644 3863 3684 3044 2953 3048 2212 1179 328 342 884 935 904 883 828 628 331 93 144
141 572 706 672 674 859 978 1416 2235 2791 3433 4070 3964 3131 4068 3621 3608 3245 3036 2844 2966 1604 1101 374 602 857 827 873 822 450 331 180 218
108 226 585 728 798 934 1286 1356 1767 2116 3113 3824 3390 2795 2991 2817 3020 3197 3303 3193 2818 1797 1202 626 492 715 702 686 611 352 588 192 156
28 79 382 715 852 968 1359 1452 1615 2034 2375 2634 2763 3335 3494 3730 2929 2933 3104 2861 2536 1840 1032 809 936 1018 637 726 443 525 688 440 81
0 12 117 466 843 1042 1174 1582 1642 1867 2125 2372 2586 3273 3941 3259 3181 3081 2967 2625 1815 1101 732 485 693 601 734 692 658 661 569 441 97
11 435 427 462 806 1180 1381 1630 2404 1934 2104 2188 2341 2616 2737 3107 2970 2749 2319 1939 1285 497 398 331 122 430 487 470 602 906 800 528 329
33 124 687 859 967 1259 1603 2070 3001 2976 2174 2150 2246 2415 2593 3442 2970 2731 2358 2117 889 291 352 357 327 89 480 717 754 592 429 552 516
7 462 960 1191 1275 1507 1962 2278 2890 2597 2367 2407 2434 2506 2595 3077 3507 2176 1921 2540 1446 1041 776 406 186 129 239 479 392 225 526 522 527
8 287 1083 1254 1423 1641 2084 2351 2585 2608 2537 2500 2551 2747 2838 3058 2772 1877 2360 1952 1427 889 908 714 414 245 270 410 201 0 24 424 496
48 68 918 1307 1594 1869 2172 2377 2636 2663 2695 2624 2803 3236 3197 3056 2740 2145 1893 1753 1308 1374 601 248 561 413 391 386 390 21 9 23 397
102 145 337 1163 1472 1644 2071 2139 2388 2482 2629 2920 3101 3262 3208 3047 2732 2194 1992 1935 1444 959 371 537 504 539 591 689 469 255 3 0 365
333 367 598 955 1354 1557 1999 1910 2162 2406 2546 2858 3080 3112 3067 2883 2368 2256 1986 1890 1616 1062 779 617 758 641 689 1112 961 24 0 0 440
150 192 646 1172 1157 1302 1749 1872 2037 2446 2686 2960 2939 2879 2832 2565 2349 2270 2119 1639 1769 1392 885 685 597 851 1218 672 1043 0 0 12 641
412 641 998 1194 1284 1465 1800 1980 2368 2631 2706 2767 2762 2714 2630 2529 2409 2161 2039 1642 1497 1072 947 892 889 897 1031 1044 1155 828 0 0 232
970 1225 1371 1658 1971 1983 1733 2319 2668 2744 2723 2852 2886 2781 2615 2324 2053 1662 1373 1216 881 945 796 741 887 1182 1372 1304 1265 378 1 1 0
1195 1249 1418 1654 1921 2124 2269 2501 2740 2934 2851 2859 2753 2687 2378 1874 1391 1482 1227 1040 1008 751 894 921 1138 1443 1159 1084 763 156 1 1 1
989 1085 1214 1407 1710 2104 2329 2317 2465 2306 2259 2336 2147 2186 1747 1443 1255 1078 1009 998 1049 1050 940 888 1002 1217 886 537 256 34 19 2 0
1275 1446 1677 1859 2091 2294 2400 2306 2115 2122 1970 2097 1853 1704 1581 1082 945 670 144 0 0 410 0 60 906 337 410 396 314 260 25 4 170
1388 1341 1664 1702 1811 1887 1669 1874 1653 1421 1801 1716 1669 1641 1431 1150 1094 942 833 260 0 0 0 0 0 0 130 0 0 0 0 0 0
1084 1525 1681 1551 1468 1598 1727 1491 1423 1453 1221 1424 1381 1268 1071 694 590 562 448 180 42 0 0 0 0 0 0 0 0 0 0 0 0

GFSFLT1_con_sbcape_030.txt.gz
CAPE
278 637 659 766 802 655 1310 1462 1725 2049 3366 3813 4063 3915 4199 4016 3728 3920 3662 3526 3059 1978 2169 1447 2010 2354 2619 2165 1718 1706 1221 797 500
34 74 635 679 1051 1054 1065 1592 1778 2013 3482 3719 4098 4272 4206 4292 4229 3728 3325 3630 3193 3392 2530 2848 2021 2071 2398 1999 1693 1332 1370 791 661
130 25 572 619 614 997 1012 1387 1883 2129 2663 3897 4145 4291 4310 4127 4262 4227 3696 3475 3639 2591 3657 2635 2293 2087 2052 1829 1710 1549 1620 854 1239
132 11 433 676 674 756 1001 1073 1530 1916 2291 3568 4062 4274 4267 4255 4198 4370 3864 3580 3270 3449 3234 2815 2164 1950 1759 1807 1705 1546 1336 1136 1113
97 34 25 120 773 888 1009 942 1141 1616 1995 2154 3612 4105 4146 4270 4331 4312 4233 3392 3868 3857 3226 2902 2061 1928 1854 1619 1485 1407 1323 837 489
155 317 388 246 500 1033 1218 1101 1060 1213 1654 1942 2840 3795 3998 4173 4199 4176 4030 3955 3239 3725 3594 3179 2167 1972 1761 1657 1332 1298 1119 1036 854
174 663 1064 825 740 1009 1312 1433 1441 1435 1536 1985 2354 3395 3653 3916 4185 4099 3934 3950 3837 3865 3940 3402 2329 1970 1741 1483 1218 1265 1099 1182 1121
354 408 551 1402 1045 1686 2553 2220 2041 1858 1777 1869 2199 2892 3368 3852 4286 4208 4224 4053 4072 3958 3945 3472 2578 1936 1714 1356 771 1071 997 1128 991
341 467 316 1121 2154 2469 2816 3211 2796 2194 2225 2063 2229 2482 3118 3528 4037 4383 4426 4331 4270 3978 3852 3244 2560 1799 1417 1146 649 456 267 906 866
596 337 275 677 2084 2541 2888 3450 3343 2809 2555 2857 2378 3013 3030 3509 4218 4460 4438 4453 4217 4060 3734 3079 2238 1695 1260 863 803 153 53 475 752
459 522 339 701 236 1843 2729 2531 2663 3880 3088 3409 3227 3624 3616 4005 4427 4587 4573 4458 4228 4014 3607 2682 1916 1519 1097 858 1143 272 0 53 291
98 262 719 963 209 129 2157 2247 2839 3390 3948 3439 3707 3680 4583 4502 4623 4723 4577 4313 4064 3565 3326 2239 1766 1324 1169 1199 1335 280 0 0 102
1 3 12 492 491 248 621 2367 2751 3605 3748 4052 3722 4314 4427 4752 4795 4658 4418 4070 3702 3840 3496 2336 1481 1116 1170 1112 1217 209 3 0 151
33 107 107 202 731 1160 3209 2574 2933 3860 3930 4166 4115 4454 4697 4762 4694 4650 4426 3709 3235 3114 2899 2649 1794 1265 990 1265 968 1098 47 0 427
598 1322 1070 635 1732 2535 4298 3603 4441 4432 4403 4577 4550 4420 4563 4512 4512 3486 3642 2920 2625 2386 1986 1960 1517 1085 966 1038 1026 897 29 0 3
1010 1137 1804 1935 2027 4855 4769 5145 4584 4463 4868 4576 4486 4249 4178 3777 3521 3250 2747 2390 2350 1461 1454 1123 1100 1130 932 922 1733 1525 135 0 0
1725 2154 2817 3093 3711 4335 4766 4888 4856 4818 4484 4154 3936 3879 3801 3579 2937 2340 1943 1599 1580 1199 1001 1179 1355 1357 1663 1896 1685 797 47 0 1
2442 3081 3547 3612 4243 4247 4690 4752 4506 4410 4131 4003 3774 3542 2582 2113 1762 1338 60 0 0 813 0 399 1319 1451 1653 1530 1274 825 195 32 0
2720 3115 3326 3439 3170 2896 3366 3671 3427 3012 3565 3622 3028 2291 2119 1613 1016 514 32 1 0 0 0 0 0 0 312 0 0 0 0 0 0
1637 2037 2334 2596 2623 2572 2732 3166 3486 3721 3486 2990 2350 1845 1779 1569 1472 1282 925 472 28 0 0 0 0 0 0 0 0 0 0 0 0

GFSFLT1_con_sbcape_033.txt.gz
CAPE
1 40 0 0 0 154 498 542 1184 1821 1909 1848 2113 2185 1883 1784 1949 2590 1744 1747 1885 762 771 515 793 1404 1243 858 486 153 192 36 128
0 0 39 10 12 60 497 552 1164 1548 2113 2052 2302 2360 2261 2124 1864 2051 2759 2125 1419 1656 882 701 635 1484 1361 911 434 474 287 94 30
0 1 0 79 26 38 568 673 820 1478 2462 2352 2486 2375 2615 2640 2514 2227 2301 2580 2087 1725 1692 1373 737 1492 1364 939 586 484 242 151 247
25 1 0 29 233 136 538 773 908 1126 2402 2565 2683 2670 2579 2760 2872 2816 2487 2371 2230 1915 1440 1164 1042 1440 1297 991 835 526 392 181 206
36 21 20 4 211 401 320 905 988 1217 2569 2607 2901 2923 3014 2936 2903 3206 3107 2614 2205 2077 1689 1327 1238 1159 1214 971 837 560 525 315 287
10 0 0 7 179 500 638 889 1154 1261 2121 2760 2844 3020 3200 3292 3185 3080 3366 3047 2594 2273 2195 1702 1225 1126 1043 1046 922 718 519 338 165
0 6 2 29 245 219 526 590 1107 1249 1534 2431 2944 3175 3257 3289 3321 3296 3315 3415 2705 2572 2618 2074 1250 1134 1005 940 918 687 658 456 305
0 15 121 70 239 349 474 455 698 1086 1416 1493 2543 2911 3232 3194 3343 3414 3442 3352 3161 2394 2739 2514 1500 1105 1115 1004 864 652 591 524 442
32 200 414 291 217 560 629 552 536 788 1104 1371 1404 2538 2957 3125 3098 3462 3419 3295 3236 2996 2591 2885 2036 1339 1175 932 954 733 681 564 596
27 1 124 447 520 620 858 1000 817 839 873 1041 1401 1502 2434 2830 3075 3361 3409 3358 3252 3281 2902 3127 2370 1627 1214 896 740 459 443 501 527
79 77 40 60 863 957 1146 2356 1283 1041 1026 1096 1499 1788 2098 2679 2881 3390 3552 3508 3414 3372 3256 2822 2214 1548 1120 687 508 195 31 119 403
0 0 3 139 383 1144 1568 2427 2200 1553 1329 1539 1341 1845 2071 2676 2959 3351 3655 3643 3558 3391 3160 2595 1779 1128 824 626 485 416 168 0 87
2 0 0 0 55 18 1596 1467 2716 2216 1870 2063 1720 1662 2377 2532 3017 3469 3849 3721 3496 3082 2553 2091 1212 979 772 612 707 499 147 0 22
420 32 0 0 0 46 531 1404 2408 2966 2468 2120 2802 2597 3391 3466 3698 3963 3910 3488 3133 2882 2098 1668 1257 987 768 680 789 395 0 0 5
1102 1348 1385 1093 266 594 947 1387 2536 2591 3014 2974 3004 3671 4119 4067 3932 3817 3212 2751 2474 2436 1987 1566 1196 928 750 672 554 613 0 0 8
1126 1184 1342 1749 3405 4353 4416 3467 2819 3105 3599 3815 3905 4084 3875 3738 3218 2937 2333 1871 1559 1401 1263 1059 702 677 635 650 714 683 372 2 0
2867 2870 3341 3789 4030 4040 4195 4269 4295 4150 3928 3798 3686 3378 2896 2251 2129 1852 1572 1107 1154 1027 914 843 778 861 798 652 733 365 1 1 0
3122 3233 3672 3770 3938 4224 4053 3791 3651 3525 3451 3304 3019 2620 1764 1310 862 137 0 0 392 386 101 490 1014 953 912 750 706 196 0 0 1
2368 2520 2701 2964 3434 3429 3483 3426 3282 3031 2608 2177 1860 1407 1141 362 79 0 0 0 0 0 0 0 0 26 3 0 88 0 0 0 0
1555 1578 1753 1844 2040 2097 2227 2165 1933 2288 1829 1427 1515 1224 473 198 57 57 1 0 0 0 0 0 0 0 0 0 0 0 0 0 0

GFSFLT1_con_sbcape_036.txt.gz
CAPE
4 0 0 0 0 30 35 171 637 995 853 1042 1130 1027 1178 1312 1262 1116 661 412 627 763 581 608 863 577 564 34 0 0 0 0 0
0 0 0 0 0 1 77 188 700 981 976 939 1315 1202 915 938 1241 1782 1709 1021 775 297 202 105 615 499 626 132 38 0 0 0 0
0 0 0 0 0 10 145 178 694 939 1052 1013 1233 1435 1304 1123 994 1379 1791 1452 1092 821 297 362 274 519 559 337 109 22 4 0 0
11 0 0 0 0 0 73 323 504 1220 1195 1127 1211 1460 1573 1459 1184 1029 1375 1865 1745 1076 833 439 226 770 750 554 201 113 24 2 3
22 1 23 6 19 21 19 358 421 1102 1545 1423 1400 1637 1693 1754 1597 1512 1241 1405 1814 1674 1104 828 514 517 993 765 447 156 124 11 55
11 10 0 29 70 15 7 304 480 892 1523 1784 1715 1834 1873 2027 2106 2065 1872 1684 1560 1970 1714 947 738 682 921 846 673 322 184 77 40
17 1 7 0 0 11 54 358 555 626 1216 2038 2019 2129 2075 2076 2236 2438 2404 2243 1927 1818 1966 1367 988 832 941 852 677 524 288 182 64
22 14 0 0 0 0 150 317 656 762 905 1869 2207 2466 2397 2329 2374 2530 2647 2738 2602 2224 1942 1921 1284 956 732 696 654 592 409 307 185
0 0 0 0 0 0 149 315 715 857 1005 1820 2113 2467 2662 2675 2749 2766 2698 2824 2979 2524 2268 2155 1392 1034 779 582 772 709 430 488 380
0 0 1 39 8 3 236 393 729 956 1089 1351 2225 2368 2642 2781 2905 2959 2933 2867 3017 2885 2391 2455 1524 996 874 813 850 577 320 337 459
0 0 0 15 64 165 238 307 399 862 1100 1301 1698 2428 2551 2869 2948 2945 3016 3061 2998 2951 2578 2368 1909 1173 980 895 899 439 98 172 565
0 0 0 0 51 324 410 621 300 456 669 1120 1492 1731 2326 2563 2839 2839 3097 3091 3036 2945 2952 2514 2350 1467 1208 1102 990 170 19 68 512
0 0 0 4 19 519 387 966 757 554 518 858 1150 1448 1459 2318 2733 2858 3040 3154 3107 3044 3021 2651 2111 1568 1375 1130 1054 105 0 0 3
0 0 0 0 0 90 818 1130 1406 910 826 778 899 1227 1446 1599 2451 2664 3022 3171 3199 3072 2862 2106 1834 1422 1010 489 460 153 0 0 2
695 773 778 227 0 0 0 920 2133 1561 1108 1195 1203 1096 1369 1772 2345 2654 2982 3272 3202 2798 2517 1804 1372 502 281 238 213 113 0 0 6
1549 1268 1153 2404 656 824 1441 320 1966 2081 1646 1466 1876 1524 1993 2135 2512 2923 3383 3294 2906 2508 1902 1218 661 563 340 345 317 7 0 0 0
3000 2910 2676 3082 3089 2996 3058 2884 1379 1798 2084 1970 2333 2240 3243 3374 3313 3176 3006 2812 2348 1814 1233 682 394 406 512 337 224 112 1 1 1
2858 3071 3207 3256 3345 3217 3221 3064 3003 2995 3126 3148 3337 3155 2963 2635 1879 1868 574 291 499 873 456 330 164 603 352 253 381 161 0 0 1
2040 2561 2658 2861 2833 2895 2605 2561 2585 2729 2822 2672 2354 1984 1064 437 86 2 2 4 3 3 0 3 73 321 24 1 237 0 0 2 1
1289 1451 1732 1944 1788 1591 1505 1407 1560 1142 1441 1443 1348 611 268 41 11 1 1 1 0 0 0 0 0 0 0 0 1 1 0 0 2